Time,TemperatureF,DewpointF,PressureIn,WindDirection,WindDirectionDegrees,WindSpeedMPH,WindSpeedGustMPH,Humidity,HourlyPrecipIn,Conditions,Clouds,dailyrainin,SoftwareType,DateUTC
2013-01-18 00:01:00,35.9,35.4,30.32,WSW,248,0.0,0.0,98,0.00,,---,0.00,VWS V14.01,2013-01-18 08:01:00,
2013-01-18 00:06:00,36.0,35.5,30.32,WSW,248,0.0,0.0,98,0.00,,---,0.00,VWS V14.01,2013-01-18 08:06:00,
2013-01-18 00:11:00,36.0,35.5,30.32,WSW,248,0.0,0.0,98,0.00,,---,0.00,VWS V14.01,2013-01-18 08:11:00,
2013-01-18 00:16:00,36.1,35.6,30.32,WSW,248,0.0,0.0,98,0.00,,---,0.00,VWS V14.01,2013-01-18 08:16:00,
2013-01-18 00:21:00,36.0,35.5,30.32,WSW,248,0.0,0.0,98,0.00,,---,0.00,VWS V14.01,2013-01-18 08:21:00,
2013-01-18 00:26:00,36.0,35.5,30.32,WSW,247,0.0,0.0,98,0.00,,---,0.00,VWS V14.01,2013-01-18 08:26:00,
2013-01-18 00:31:00,35.9,35.4,30.32,WSW,247,0.0,0.0,98,0.00,,---,0.00,VWS V14.01,2013-01-18 08:31:00,
2013-01-18 00:36:00,35.8,35.3,30.32,WSW,246,0.0,0.0,98,0.00,,---,0.00,VWS V14.01,2013-01-18 08:36:00,
2013-01-18 00:41:00,35.7,35.2,30.32,SSW,211,0.0,0.0,98,0.00,,---,0.00,VWS V14.01,2013-01-18 08:41:00,
2013-01-18 00:46:00,35.5,35.0,30.32,SSW,211,0.0,0.0,98,0.00,,---,0.00,VWS V14.01,2013-01-18 08:46:00,
2013-01-18 00:51:00,35.5,35.0,30.32,SSW,211,0.0,0.0,98,0.00,,---,0.00,VWS V14.01,2013-01-18 08:51:00,
2013-01-18 00:56:00,35.6,35.1,30.32,SSW,211,0.0,0.0,98,0.00,,---,0.00,VWS V14.01,2013-01-18 08:56:00,
2013-01-18 01:01:00,35.5,35.0,30.32,SSW,211,0.0,0.0,98,0.00,,---,0.00,VWS V14.01,2013-01-18 09:01:00,
2013-01-18 01:06:00,35.5,35.0,30.32,SSW,211,0.0,0.0,98,0.00,,---,0.00,VWS V14.01,2013-01-18 09:06:00,
2013-01-18 01:11:00,35.6,35.1,30.32,SSW,211,0.0,0.0,98,0.00,,---,0.00,VWS V14.01,2013-01-18 09:11:00,
2013-01-18 01:16:00,35.6,35.1,30.32,SSW,211,0.0,0.0,98,0.00,,---,0.00,VWS V14.01,2013-01-18 09:16:00,
2013-01-18 01:21:00,35.5,35.0,30.32,SSW,211,0.0,0.0,98,0.00,,---,0.00,VWS V14.01,2013-01-18 09:21:00,
2013-01-18 01:26:00,35.4,34.9,30.31,SSW,211,0.0,0.0,98,0.00,,---,0.00,VWS V14.01,2013-01-18 09:26:00,
2013-01-18 01:31:00,35.4,34.9,30.32,SSW,211,0.0,0.0,98,0.00,,---,0.00,VWS V14.01,2013-01-18 09:31:00,
2013-01-18 01:36:00,35.3,34.8,30.32,SSW,211,0.0,0.0,98,0.00,,---,0.00,VWS V14.01,2013-01-18 09:36:00,
2013-01-18 01:41:00,35.2,34.7,30.31,SSW,211,0.0,0.0,98,0.00,,---,0.00,VWS V14.01,2013-01-18 09:41:00,
2013-01-18 01:46:00,34.9,34.4,30.31,SSW,203,0.0,0.0,98,0.00,,---,0.00,VWS V14.01,2013-01-18 09:46:00,
2013-01-18 01:51:00,34.8,34.3,30.31,SSW,203,0.0,0.0,98,0.00,,---,0.00,VWS V14.01,2013-01-18 09:51:00,
2013-01-18 01:56:00,34.9,34.4,30.31,SSW,203,0.0,0.0,98,0.00,,---,0.00,VWS V14.01,2013-01-18 09:56:00,
2013-01-18 02:01:00,34.9,34.4,30.31,SSW,203,0.0,0.0,98,0.00,,---,0.00,VWS V14.01,2013-01-18 10:01:00,
2013-01-18 02:06:00,34.9,34.4,30.31,SSW,203,0.0,0.0,98,0.00,,---,0.00,VWS V14.01,2013-01-18 10:06:00,
2013-01-18 02:11:00,34.8,34.3,30.31,SSW,203,0.0,0.0,98,0.00,,---,0.00,VWS V14.01,2013-01-18 10:11:00,
2013-01-18 02:16:00,34.7,34.2,30.31,SSW,203,0.0,0.0,98,0.00,,---,0.00,VWS V14.01,2013-01-18 10:16:00,
2013-01-18 02:21:00,34.8,34.3,30.31,SSW,203,0.0,0.0,98,0.00,,---,0.00,VWS V14.01,2013-01-18 10:21:00,
2013-01-18 02:26:00,34.8,34.3,30.31,SSW,203,0.0,0.0,98,0.00,,---,0.00,VWS V14.01,2013-01-18 10:26:00,
2013-01-18 02:31:00,34.6,34.1,30.31,SSW,203,0.0,0.0,98,0.00,,---,0.00,VWS V14.01,2013-01-18 10:31:00,
2013-01-18 02:36:00,34.4,33.9,30.32,SSW,203,0.0,0.0,98,0.00,,---,0.00,VWS V14.01,2013-01-18 10:36:00,
2013-01-18 02:41:00,34.3,33.8,30.31,SSW,203,0.0,0.0,98,0.00,,---,0.00,VWS V14.01,2013-01-18 10:41:00,
2013-01-18 02:46:00,34.1,33.6,30.31,SSW,203,0.0,0.0,98,0.00,,---,0.00,VWS V14.01,2013-01-18 10:46:00,
2013-01-18 02:51:00,34.2,33.7,30.31,SSW,203,0.0,0.0,98,0.00,,---,0.00,VWS V14.01,2013-01-18 10:51:00,
2013-01-18 02:56:00,34.2,33.7,30.31,SSW,203,0.0,0.0,98,0.00,,---,0.00,VWS V14.01,2013-01-18 10:56:00,
2013-01-18 03:01:00,34.2,33.7,30.31,SSW,203,0.0,0.0,98,0.00,,---,0.00,VWS V14.01,2013-01-18 11:01:00,
2013-01-18 03:06:00,34.2,33.7,30.31,SSW,203,0.0,0.0,98,0.00,,---,0.00,VWS V14.01,2013-01-18 11:06:00,
2013-01-18 03:11:00,34.3,33.8,30.31,SSW,203,0.0,0.0,98,0.00,,---,0.00,VWS V14.01,2013-01-18 11:11:00,
2013-01-18 03:16:00,34.4,33.9,30.31,SSW,203,0.0,0.0,98,0.00,,---,0.00,VWS V14.01,2013-01-18 11:16:00,
2013-01-18 03:21:00,34.4,33.9,30.31,SSW,203,0.0,0.0,98,0.00,,---,0.00,VWS V14.01,2013-01-18 11:21:00,
2013-01-18 03:26:00,34.4,33.9,30.31,SSW,203,0.0,0.0,98,0.00,,---,0.00,VWS V14.01,2013-01-18 11:26:00,
2013-01-18 03:31:00,34.6,34.1,30.31,SSW,203,0.0,0.0,98,0.00,,---,0.00,VWS V14.01,2013-01-18 11:31:00,
2013-01-18 03:36:00,34.7,34.2,30.31,SSW,203,0.0,0.0,98,0.00,,---,0.00,VWS V14.01,2013-01-18 11:36:00,
2013-01-18 03:41:00,34.7,34.2,30.31,SSW,203,0.0,0.0,98,0.00,,---,0.00,VWS V14.01,2013-01-18 11:41:00,
2013-01-18 03:46:00,34.8,34.3,30.31,SSW,203,0.0,0.0,98,0.00,,---,0.00,VWS V14.01,2013-01-18 11:46:00,
2013-01-18 03:51:00,34.9,34.4,30.31,SSW,203,0.0,0.0,98,0.00,,---,0.00,VWS V14.01,2013-01-18 11:51:00,
2013-01-18 03:56:00,35.0,34.5,30.30,SSW,203,0.0,0.0,98,0.00,,---,0.00,VWS V14.01,2013-01-18 11:56:00,
2013-01-18 04:01:00,35.2,34.7,30.30,SSW,203,0.0,0.0,98,0.00,,---,0.00,VWS V14.01,2013-01-18 12:01:00,
2013-01-18 04:06:00,35.1,34.6,30.30,SSW,203,0.0,0.0,98,0.00,,---,0.00,VWS V14.01,2013-01-18 12:06:00,
2013-01-18 04:11:00,35.0,34.5,30.30,SSW,203,0.0,0.0,98,0.00,,---,0.00,VWS V14.01,2013-01-18 12:11:00,
2013-01-18 04:16:00,35.0,34.5,30.30,SSW,203,0.0,0.0,98,0.00,,---,0.00,VWS V14.01,2013-01-18 12:16:00,
2013-01-18 04:21:00,35.0,34.5,30.30,SSW,203,0.0,0.0,98,0.00,,---,0.00,VWS V14.01,2013-01-18 12:21:00,
2013-01-18 04:26:00,35.1,34.6,30.30,SSW,203,0.0,0.0,98,0.00,,---,0.00,VWS V14.01,2013-01-18 12:26:00,
2013-01-18 04:31:00,35.1,34.6,30.30,SSW,203,0.0,0.0,98,0.00,,---,0.00,VWS V14.01,2013-01-18 12:31:00,
2013-01-18 04:36:00,35.2,34.7,30.29,SSW,203,0.0,0.0,98,0.00,,---,0.00,VWS V14.01,2013-01-18 12:36:00,
2013-01-18 04:41:00,35.4,34.9,30.29,SSW,203,0.0,0.0,98,0.00,,---,0.00,VWS V14.01,2013-01-18 12:41:00,
2013-01-18 04:46:00,35.5,35.0,30.29,SSW,203,0.0,0.0,98,0.00,,---,0.00,VWS V14.01,2013-01-18 12:46:00,
2013-01-18 04:51:00,35.5,35.0,30.29,SSW,203,0.0,0.0,98,0.00,,---,0.00,VWS V14.01,2013-01-18 12:51:00,
2013-01-18 04:56:00,35.4,34.9,30.29,SSW,203,0.0,0.0,98,0.00,,---,0.00,VWS V14.01,2013-01-18 12:56:00,
2013-01-18 05:01:00,35.3,34.8,30.29,SSW,203,0.0,0.0,98,0.00,,---,0.00,VWS V14.01,2013-01-18 13:01:00,
2013-01-18 05:06:00,35.3,34.8,30.29,SSW,203,0.0,0.0,98,0.00,,---,0.00,VWS V14.01,2013-01-18 13:06:00,
2013-01-18 05:11:00,35.2,34.7,30.29,SSW,203,0.0,0.0,98,0.00,,---,0.00,VWS V14.01,2013-01-18 13:11:00,
2013-01-18 05:16:00,35.2,34.7,30.28,SSW,203,0.0,0.0,98,0.00,,---,0.00,VWS V14.01,2013-01-18 13:16:00,
2013-01-18 05:21:00,35.2,34.7,30.28,SSW,203,0.0,0.0,98,0.00,,---,0.00,VWS V14.01,2013-01-18 13:21:00,
2013-01-18 05:26:00,35.2,34.7,30.28,SSW,203,0.0,0.0,98,0.00,,---,0.00,VWS V14.01,2013-01-18 13:26:00,
2013-01-18 05:31:00,35.0,34.5,30.29,SSW,203,0.0,0.0,98,0.00,,---,0.00,VWS V14.01,2013-01-18 13:31:00,
2013-01-18 05:36:00,34.8,34.3,30.29,SSW,203,0.0,0.0,98,0.00,,---,0.00,VWS V14.01,2013-01-18 13:36:00,
2013-01-18 05:41:00,35.1,34.6,30.29,SSW,203,0.0,0.0,98,0.00,,---,0.00,VWS V14.01,2013-01-18 13:41:00,
2013-01-18 05:46:00,35.2,34.7,30.29,SSW,203,0.0,0.0,98,0.00,,---,0.00,VWS V14.01,2013-01-18 13:46:00,
2013-01-18 05:51:00,35.3,34.8,30.29,SSW,203,0.0,0.0,98,0.00,,---,0.00,VWS V14.01,2013-01-18 13:51:00,
2013-01-18 05:56:00,35.2,34.7,30.29,SSW,203,0.0,0.0,98,0.00,,---,0.00,VWS V14.01,2013-01-18 13:56:00,
2013-01-18 06:01:00,35.2,34.7,30.29,SSW,203,0.0,0.0,98,0.00,,---,0.00,VWS V14.01,2013-01-18 14:01:00,
2013-01-18 06:06:00,35.3,34.8,30.29,SSW,203,0.0,0.0,98,0.00,,---,0.00,VWS V14.01,2013-01-18 14:06:00,
2013-01-18 06:11:00,35.3,34.8,30.29,SSW,203,0.0,0.0,98,0.00,,---,0.00,VWS V14.01,2013-01-18 14:11:00,
2013-01-18 06:16:00,35.2,34.7,30.29,South,175,0.0,0.0,98,0.00,,---,0.00,VWS V14.01,2013-01-18 14:16:00,
2013-01-18 06:21:00,35.3,34.8,30.29,South,175,0.0,0.0,98,0.00,,---,0.00,VWS V14.01,2013-01-18 14:21:00,
2013-01-18 06:26:00,35.4,34.9,30.29,South,175,0.0,0.0,98,0.00,,---,0.00,VWS V14.01,2013-01-18 14:26:00,
2013-01-18 06:31:00,35.4,34.9,30.29,South,175,0.0,0.0,98,0.00,,---,0.00,VWS V14.01,2013-01-18 14:31:00,
2013-01-18 06:36:00,35.4,34.9,30.29,South,175,0.0,0.0,98,0.00,,---,0.00,VWS V14.01,2013-01-18 14:36:00,
2013-01-18 06:41:00,35.3,34.8,30.29,South,175,0.0,0.0,98,0.00,,---,0.00,VWS V14.01,2013-01-18 14:41:00,
2013-01-18 06:46:00,35.4,34.9,30.29,South,175,0.0,0.0,98,0.00,,---,0.00,VWS V14.01,2013-01-18 14:46:00,
2013-01-18 06:51:00,35.3,34.8,30.29,South,175,0.0,0.0,98,0.00,,---,0.00,VWS V14.01,2013-01-18 14:51:00,
2013-01-18 06:56:00,35.3,34.8,30.29,South,175,0.0,0.0,98,0.00,,---,0.00,VWS V14.01,2013-01-18 14:56:00,
2013-01-18 07:01:00,35.3,34.8,30.29,South,175,0.0,0.0,98,0.00,,---,0.00,VWS V14.01,2013-01-18 15:01:00,
2013-01-18 07:06:00,35.5,35.0,30.29,South,175,0.0,0.0,98,0.00,,---,0.00,VWS V14.01,2013-01-18 15:06:00,
2013-01-18 07:11:00,35.5,35.0,30.29,South,175,0.0,0.0,98,0.00,,---,0.00,VWS V14.01,2013-01-18 15:11:00,
2013-01-18 07:16:00,35.5,35.0,30.28,South,175,0.0,0.0,98,0.00,,---,0.00,VWS V14.01,2013-01-18 15:16:00,
2013-01-18 07:21:00,35.4,34.9,30.29,South,175,0.0,0.0,98,0.00,,---,0.00,VWS V14.01,2013-01-18 15:21:00,
2013-01-18 07:26:00,35.3,34.8,30.29,South,175,0.0,0.0,98,0.00,,---,0.00,VWS V14.01,2013-01-18 15:26:00,
2013-01-18 07:31:00,35.2,34.7,30.29,South,175,0.0,0.0,98,0.00,,---,0.00,VWS V14.01,2013-01-18 15:31:00,
2013-01-18 07:36:00,35.3,34.8,30.29,South,175,0.0,0.0,98,0.00,,---,0.00,VWS V14.01,2013-01-18 15:36:00,
2013-01-18 07:41:00,35.3,34.8,30.29,South,175,0.0,0.0,98,0.00,,---,0.00,VWS V14.01,2013-01-18 15:41:00,
2013-01-18 07:46:00,35.3,34.8,30.29,South,175,0.0,0.0,98,0.00,,---,0.00,VWS V14.01,2013-01-18 15:46:00,
2013-01-18 07:51:00,35.4,34.9,30.29,South,175,0.0,0.0,98,0.00,,---,0.00,VWS V14.01,2013-01-18 15:51:00,
2013-01-18 07:56:00,35.5,35.0,30.29,South,175,0.0,0.0,98,0.00,,---,0.00,VWS V14.01,2013-01-18 15:56:00,
2013-01-18 08:01:00,35.7,35.2,30.29,South,175,0.0,0.0,98,0.00,,---,0.00,VWS V14.01,2013-01-18 16:01:00,
2013-01-18 08:06:00,35.7,35.2,30.29,South,175,0.0,0.0,98,0.00,,---,0.00,VWS V14.01,2013-01-18 16:06:00,
2013-01-18 08:11:00,35.6,35.1,30.30,South,175,0.0,0.0,98,0.00,,---,0.00,VWS V14.01,2013-01-18 16:11:00,
2013-01-18 08:16:00,35.6,35.1,30.29,South,175,0.0,0.0,98,0.00,,---,0.00,VWS V14.01,2013-01-18 16:16:00,
2013-01-18 08:21:00,35.6,35.1,30.30,South,175,0.0,0.0,98,0.00,,---,0.00,VWS V14.01,2013-01-18 16:21:00,
2013-01-18 08:26:00,35.7,35.2,30.30,South,175,0.0,0.0,98,0.00,,---,0.00,VWS V14.01,2013-01-18 16:26:00,
2013-01-18 08:31:00,35.5,35.0,30.30,South,175,0.0,0.0,98,0.00,,---,0.00,VWS V14.01,2013-01-18 16:31:00,
2013-01-18 08:36:00,35.2,34.7,30.30,South,176,0.0,0.0,98,0.00,,---,0.00,VWS V14.01,2013-01-18 16:36:00,
2013-01-18 08:41:00,35.1,34.6,30.31,SSW,209,0.0,0.0,98,0.00,,---,0.00,VWS V14.01,2013-01-18 16:41:00,
2013-01-18 08:46:00,35.0,34.5,30.30,SSW,209,0.0,0.0,98,0.00,,---,0.00,VWS V14.01,2013-01-18 16:46:00,
2013-01-18 08:51:00,35.0,34.5,30.31,SSW,209,0.0,0.0,98,0.00,,---,0.00,VWS V14.01,2013-01-18 16:51:00,
2013-01-18 08:56:00,35.0,34.5,30.31,SSW,209,0.0,0.0,98,0.00,,---,0.00,VWS V14.01,2013-01-18 16:56:00,
2013-01-18 09:01:00,35.0,34.5,30.31,SSW,209,0.0,0.0,98,0.00,,---,0.00,VWS V14.01,2013-01-18 17:01:00,
2013-01-18 09:06:00,35.0,34.5,30.31,SSW,209,0.0,0.0,98,0.00,,---,0.00,VWS V14.01,2013-01-18 17:06:00,
2013-01-18 09:11:00,35.1,34.6,30.32,SSW,209,0.0,0.0,98,0.00,,---,0.00,VWS V14.01,2013-01-18 17:11:00,
2013-01-18 09:16:00,35.4,34.9,30.32,SW,231,0.0,0.0,98,0.00,,---,0.00,VWS V14.01,2013-01-18 17:16:00,
2013-01-18 09:21:00,35.3,34.8,30.32,WSW,237,0.0,0.0,98,0.00,,---,0.00,VWS V14.01,2013-01-18 17:21:00,
2013-01-18 09:26:00,35.5,35.0,30.32,WSW,241,0.0,0.0,98,0.00,,---,0.00,VWS V14.01,2013-01-18 17:26:00,
2013-01-18 09:30:00,35.2,34.7,30.32,WSW,242,0.0,0.0,98,0.00,,---,0.00,VWS V14.01,2013-01-18 17:30:00,
2013-01-18 09:35:00,35.3,34.8,30.32,WSW,242,0.0,0.0,98,0.00,,---,0.00,VWS V14.01,2013-01-18 17:35:00,
2013-01-18 09:40:00,35.7,35.2,30.32,WSW,243,0.0,0.0,98,0.00,,---,0.00,VWS V14.01,2013-01-18 17:40:00,
2013-01-18 09:46:00,35.7,35.2,30.32,WSW,243,0.0,0.0,98,0.00,,---,0.00,VWS V14.01,2013-01-18 17:46:00,
2013-01-18 09:51:00,35.5,35.0,30.32,WSW,243,0.0,0.0,98,0.00,,---,0.00,VWS V14.01,2013-01-18 17:51:00,
2013-01-18 09:56:00,35.5,35.0,30.33,WSW,243,0.0,0.0,98,0.00,,---,0.00,VWS V14.01,2013-01-18 17:56:00,
2013-01-18 10:00:00,36.0,35.5,30.33,WSW,243,0.0,0.0,98,0.00,,---,0.00,VWS V14.01,2013-01-18 18:00:00,
2013-01-18 10:05:00,36.2,35.7,30.33,WNW,292,0.0,0.0,98,0.00,,---,0.00,VWS V14.01,2013-01-18 18:05:00,
2013-01-18 10:10:00,36.0,35.5,30.33,WNW,291,0.0,0.0,98,0.00,,---,0.00,VWS V14.01,2013-01-18 18:10:00,
2013-01-18 10:15:00,35.8,35.3,30.33,WNW,292,0.0,0.0,98,0.00,,---,0.00,VWS V14.01,2013-01-18 18:15:00,
2013-01-18 10:20:00,35.8,35.3,30.32,WNW,292,0.0,0.0,98,0.00,,---,0.00,VWS V14.01,2013-01-18 18:20:00,
2013-01-18 10:25:00,35.9,35.4,30.32,WNW,292,0.0,0.0,98,0.00,,---,0.00,VWS V14.01,2013-01-18 18:25:00,
2013-01-18 10:30:00,36.2,35.7,30.32,WNW,293,0.0,0.0,98,0.00,,---,0.00,VWS V14.01,2013-01-18 18:30:00,
2013-01-18 10:35:00,36.0,35.5,30.33,WNW,292,0.0,0.0,98,0.00,,---,0.00,VWS V14.01,2013-01-18 18:35:00,
2013-01-18 10:40:00,36.0,35.5,30.33,WNW,292,0.0,0.0,98,0.00,,---,0.00,VWS V14.01,2013-01-18 18:40:00,
2013-01-18 10:45:00,36.0,35.5,30.33,WNW,293,0.0,0.0,98,0.00,,---,0.00,VWS V14.01,2013-01-18 18:45:00,
2013-01-18 10:50:00,36.0,35.5,30.33,WNW,298,0.0,0.0,98,0.00,,---,0.00,VWS V14.01,2013-01-18 18:50:00,
2013-01-18 10:55:00,35.8,35.3,30.33,WNW,298,0.0,0.0,98,0.00,,---,0.00,VWS V14.01,2013-01-18 18:55:00,
2013-01-18 11:00:00,35.9,35.4,30.32,WNW,298,0.0,0.0,98,0.00,,---,0.00,VWS V14.01,2013-01-18 19:00:00,
2013-01-18 11:05:00,35.9,35.4,30.32,WNW,298,0.0,0.0,98,0.00,,---,0.00,VWS V14.01,2013-01-18 19:05:00,
2013-01-18 11:10:00,36.1,35.6,30.32,WNW,291,0.0,0.0,98,0.00,,---,0.00,VWS V14.01,2013-01-18 19:10:00,
2013-01-18 11:15:00,36.2,35.7,30.32,WNW,285,0.0,0.0,98,0.00,,---,0.00,VWS V14.01,2013-01-18 19:15:00,
2013-01-18 11:20:00,36.3,35.8,30.32,WNW,285,0.0,0.0,98,0.00,,---,0.00,VWS V14.01,2013-01-18 19:20:00,
2013-01-18 11:25:00,36.5,36.0,30.32,WNW,285,0.0,0.0,98,0.00,,---,0.00,VWS V14.01,2013-01-18 19:25:00,
2013-01-18 11:30:00,36.6,36.1,30.32,WNW,285,0.0,0.0,98,0.00,,---,0.00,VWS V14.01,2013-01-18 19:30:00,
2013-01-18 11:35:00,36.5,36.0,30.32,WNW,285,0.0,0.0,98,0.00,,---,0.00,VWS V14.01,2013-01-18 19:35:00,
2013-01-18 11:40:00,36.8,36.3,30.31,WNW,285,0.0,0.0,98,0.00,,---,0.00,VWS V14.01,2013-01-18 19:40:00,
2013-01-18 11:45:00,36.9,36.1,30.31,WNW,285,0.0,0.0,97,0.00,,---,0.00,VWS V14.01,2013-01-18 19:45:00,
2013-01-18 11:50:00,36.8,36.0,30.32,WNW,285,0.0,0.0,97,0.00,,---,0.00,VWS V14.01,2013-01-18 19:50:00,
2013-01-18 11:55:00,36.8,36.0,30.32,WNW,285,0.0,0.0,97,0.00,,---,0.00,VWS V14.01,2013-01-18 19:55:00,
2013-01-18 12:00:00,36.9,36.1,30.32,WNW,285,0.0,0.0,97,0.00,,---,0.00,VWS V14.01,2013-01-18 20:00:00,
2013-01-18 12:05:00,37.0,36.2,30.32,WNW,285,0.0,0.0,97,0.00,,---,0.00,VWS V14.01,2013-01-18 20:05:00,
2013-01-18 12:10:00,37.2,36.4,30.32,WNW,285,0.0,0.0,97,0.00,,---,0.00,VWS V14.01,2013-01-18 20:10:00,
2013-01-18 12:15:00,37.3,36.5,30.32,WNW,285,0.0,0.0,97,0.00,,---,0.00,VWS V14.01,2013-01-18 20:15:00,
2013-01-18 12:20:00,37.4,36.6,30.32,WNW,285,0.0,0.0,97,0.00,,---,0.00,VWS V14.01,2013-01-18 20:20:00,
2013-01-18 12:25:00,37.3,36.3,30.32,NW,322,0.0,0.0,96,0.00,,---,0.00,VWS V14.01,2013-01-18 20:25:00,
2013-01-18 12:30:00,37.8,37.0,30.32,NW,323,0.0,0.0,97,0.00,,---,0.00,VWS V14.01,2013-01-18 20:30:00,
2013-01-18 12:35:00,38.2,37.4,30.33,NW,322,0.0,0.0,97,0.00,,---,0.00,VWS V14.01,2013-01-18 20:35:00,
2013-01-18 12:40:00,38.4,37.4,30.33,NW,322,0.0,0.0,96,0.00,,---,0.00,VWS V14.01,2013-01-18 20:40:00,
2013-01-18 12:45:00,38.3,37.3,30.33,NNW,347,0.0,0.0,96,0.00,,---,0.00,VWS V14.01,2013-01-18 20:45:00,
2013-01-18 12:50:00,38.2,36.9,30.32,NNW,347,0.0,0.0,95,0.00,,---,0.00,VWS V14.01,2013-01-18 20:50:00,
2013-01-18 12:55:00,38.3,37.0,30.32,NNW,346,0.0,0.0,95,0.00,,---,0.00,VWS V14.01,2013-01-18 20:55:00,
2013-01-18 13:00:00,38.4,37.4,30.32,NNW,333,0.0,0.0,96,0.00,,---,0.00,VWS V14.01,2013-01-18 21:00:00,
2013-01-18 13:05:00,38.5,37.2,30.32,North,360,0.0,0.0,95,0.00,,---,0.00,VWS V14.01,2013-01-18 21:05:00,
2013-01-18 13:10:00,38.6,37.3,30.31,North,355,0.0,0.0,95,0.00,,---,0.00,VWS V14.01,2013-01-18 21:10:00,
2013-01-18 13:15:00,38.4,37.1,30.31,NNW,338,0.0,0.0,95,0.00,,---,0.00,VWS V14.01,2013-01-18 21:15:00,
2013-01-18 13:20:00,38.3,37.0,30.31,NNW,333,0.0,0.0,95,0.00,,---,0.00,VWS V14.01,2013-01-18 21:20:00,
2013-01-18 13:25:00,37.8,36.5,30.31,NNW,340,0.0,0.0,95,0.00,,---,0.00,VWS V14.01,2013-01-18 21:25:00,
2013-01-18 13:30:00,37.6,36.3,30.31,NNW,332,0.0,0.0,95,0.00,,---,0.00,VWS V14.01,2013-01-18 21:30:00,
2013-01-18 13:35:00,37.5,36.2,30.32,NNW,345,0.0,0.0,95,0.00,,---,0.00,VWS V14.01,2013-01-18 21:35:00,
2013-01-18 13:40:00,37.7,36.4,30.32,NNW,344,0.0,0.0,95,0.00,,---,0.00,VWS V14.01,2013-01-18 21:40:00,
2013-01-18 13:45:00,37.5,36.2,30.31,NNW,347,0.0,0.0,95,0.00,,---,0.00,VWS V14.01,2013-01-18 21:45:00,
2013-01-18 13:50:00,37.7,36.4,30.32,West,279,0.0,0.0,95,0.00,,---,0.00,VWS V14.01,2013-01-18 21:50:00,
2013-01-18 13:55:00,37.9,36.6,30.32,WNW,300,0.0,0.0,95,0.00,,---,0.00,VWS V14.01,2013-01-18 21:55:00,
2013-01-18 14:00:00,38.0,36.7,30.32,NNW,348,0.0,0.0,95,0.00,,---,0.00,VWS V14.01,2013-01-18 22:00:00,
2013-01-18 14:05:00,37.7,36.1,30.32,NNW,340,0.0,0.0,94,0.00,,---,0.00,VWS V14.01,2013-01-18 22:05:00,
2013-01-18 14:10:00,37.5,35.9,30.32,NNW,342,0.0,0.0,94,0.00,,---,0.00,VWS V14.01,2013-01-18 22:10:00,
2013-01-18 14:15:00,37.5,35.9,30.32,NNW,331,0.0,0.0,94,0.00,,---,0.00,VWS V14.01,2013-01-18 22:15:00,
2013-01-18 14:20:00,37.5,35.9,30.32,NW,306,0.0,0.0,94,0.00,,---,0.00,VWS V14.01,2013-01-18 22:20:00,
2013-01-18 14:25:00,37.9,36.6,30.31,NW,305,0.0,0.0,95,0.00,,---,0.00,VWS V14.01,2013-01-18 22:25:00,
2013-01-18 14:30:00,38.2,36.9,30.31,North,9,0.0,0.0,95,0.00,,---,0.00,VWS V14.01,2013-01-18 22:30:00,
2013-01-18 14:35:00,37.9,36.1,30.31,North,350,0.0,0.0,93,0.00,,---,0.00,VWS V14.01,2013-01-18 22:35:00,
2013-01-18 14:40:00,37.9,36.3,30.31,North,350,0.0,0.0,94,0.00,,---,0.00,VWS V14.01,2013-01-18 22:40:00,
2013-01-18 14:45:00,38.0,36.4,30.32,NNE,12,0.0,0.0,94,0.00,,---,0.00,VWS V14.01,2013-01-18 22:45:00,
2013-01-18 14:50:00,37.9,36.3,30.32,North,5,0.0,0.0,94,0.00,,---,0.00,VWS V14.01,2013-01-18 22:50:00,
2013-01-18 14:55:00,38.0,36.4,30.32,NNW,330,0.0,0.0,94,0.00,,---,0.00,VWS V14.01,2013-01-18 22:55:00,
2013-01-18 15:00:00,37.8,36.0,30.32,North,355,0.0,0.0,93,0.00,,---,0.00,VWS V14.01,2013-01-18 23:00:00,
2013-01-18 15:05:00,37.3,35.5,30.32,NNW,345,0.0,0.0,93,0.00,,---,0.00,VWS V14.01,2013-01-18 23:05:00,
2013-01-18 15:10:00,36.9,35.3,30.32,NNW,341,0.0,0.0,94,0.00,,---,0.00,VWS V14.01,2013-01-18 23:10:00,
2013-01-18 15:15:00,37.3,36.0,30.32,SW,227,0.0,0.0,95,0.00,,---,0.00,VWS V14.01,2013-01-18 23:15:00,
2013-01-18 15:20:00,37.7,36.4,30.32,NNE,14,0.0,0.0,95,0.00,,---,0.00,VWS V14.01,2013-01-18 23:20:00,
2013-01-18 15:25:00,37.4,35.6,30.32,North,350,0.0,0.0,93,0.00,,---,0.00,VWS V14.01,2013-01-18 23:25:00,
2013-01-18 15:30:00,37.4,35.8,30.32,NNW,343,0.0,0.0,94,0.00,,---,0.00,VWS V14.01,2013-01-18 23:30:00,
2013-01-18 15:35:00,37.6,36.0,30.32,NNW,343,0.0,0.0,94,0.00,,---,0.00,VWS V14.01,2013-01-18 23:35:00,
2013-01-18 15:40:00,37.7,35.9,30.32,NNW,338,0.0,0.0,93,0.00,,---,0.00,VWS V14.01,2013-01-18 23:40:00,
2013-01-18 15:45:00,37.2,35.4,30.32,NNW,338,0.0,0.0,93,0.00,,---,0.00,VWS V14.01,2013-01-18 23:45:00,
2013-01-18 15:50:00,36.9,35.1,30.32,NNW,338,0.0,0.0,93,0.00,,---,0.00,VWS V14.01,2013-01-18 23:50:00,
2013-01-18 15:55:00,36.9,35.3,30.32,NNW,338,0.0,0.0,94,0.00,,---,0.00,VWS V14.01,2013-01-18 23:55:00,
2013-01-18 16:00:00,36.7,35.1,30.32,NNW,338,0.0,0.0,94,0.00,,---,0.00,VWS V14.01,2013-01-19 00:00:00,
2013-01-18 16:05:00,36.8,35.2,30.32,NNW,338,0.0,0.0,94,0.00,,---,0.00,VWS V14.01,2013-01-19 00:05:00,
2013-01-18 16:10:00,36.5,34.9,30.32,NNW,331,0.0,0.0,94,0.00,,---,0.00,VWS V14.01,2013-01-19 00:10:00,
2013-01-18 16:15:00,36.4,34.8,30.32,NW,323,0.0,0.0,94,0.00,,---,0.00,VWS V14.01,2013-01-19 00:15:00,
2013-01-18 16:20:00,36.4,34.8,30.32,NNW,345,0.0,0.0,94,0.00,,---,0.00,VWS V14.01,2013-01-19 00:20:00,
2013-01-18 16:25:00,36.0,34.7,30.32,NNW,336,0.0,0.0,95,0.00,,---,0.00,VWS V14.01,2013-01-19 00:25:00,
2013-01-18 16:30:00,35.9,34.6,30.32,NNW,336,0.0,0.0,95,0.00,,---,0.00,VWS V14.01,2013-01-19 00:30:00,
2013-01-18 16:35:00,35.7,34.4,30.32,NNW,340,0.0,0.0,95,0.00,,---,0.00,VWS V14.01,2013-01-19 00:35:00,
2013-01-18 16:40:00,35.8,34.8,30.32,NNW,331,0.0,0.0,96,0.00,,---,0.00,VWS V14.01,2013-01-19 00:40:00,
2013-01-18 16:45:00,35.6,34.3,30.33,NNW,339,0.0,0.0,95,0.00,,---,0.00,VWS V14.01,2013-01-19 00:45:00,
2013-01-18 16:50:00,35.7,34.7,30.32,NNW,340,0.0,0.0,96,0.00,,---,0.00,VWS V14.01,2013-01-19 00:50:00,
2013-01-18 16:55:00,35.2,33.9,30.33,NNW,348,0.0,0.0,95,0.00,,---,0.00,VWS V14.01,2013-01-19 00:55:00,
2013-01-18 17:00:00,34.9,33.9,30.32,NNW,342,0.0,0.0,96,0.00,,---,0.00,VWS V14.01,2013-01-19 01:00:00,
2013-01-18 17:05:00,35.0,34.0,30.32,NNW,339,0.0,0.0,96,0.00,,---,0.00,VWS V14.01,2013-01-19 01:05:00,
2013-01-18 17:10:00,35.1,34.1,30.32,NNW,339,0.0,0.0,96,0.00,,---,0.00,VWS V14.01,2013-01-19 01:10:00,
2013-01-18 17:15:00,35.1,34.1,30.32,NNW,339,0.0,0.0,96,0.00,,---,0.00,VWS V14.01,2013-01-19 01:15:00,
2013-01-18 17:20:00,35.2,34.4,30.32,NNW,339,0.0,0.0,97,0.00,,---,0.00,VWS V14.01,2013-01-19 01:20:00,
2013-01-18 17:25:00,35.3,34.5,30.33,NNW,338,0.0,0.0,97,0.00,,---,0.00,VWS V14.01,2013-01-19 01:25:00,
2013-01-18 17:30:00,35.3,34.5,30.33,NNW,328,0.0,0.0,97,0.00,,---,0.00,VWS V14.01,2013-01-19 01:30:00,
2013-01-18 17:35:00,35.2,34.2,30.33,NNW,331,0.0,0.0,96,0.00,,---,0.00,VWS V14.01,2013-01-19 01:35:00,
2013-01-18 17:40:00,35.1,34.1,30.33,NNW,330,0.0,0.0,96,0.00,,---,0.00,VWS V14.01,2013-01-19 01:40:00,
2013-01-18 17:45:00,35.2,34.4,30.33,NNW,338,0.0,0.0,97,0.00,,---,0.00,VWS V14.01,2013-01-19 01:45:00,
2013-01-18 17:50:00,34.8,34.0,30.33,NNW,336,0.0,0.0,97,0.00,,---,0.00,VWS V14.01,2013-01-19 01:50:00,
2013-01-18 17:55:00,34.7,33.7,30.33,NW,321,0.0,0.0,96,0.00,,---,0.00,VWS V14.01,2013-01-19 01:55:00,
2013-01-18 18:00:00,34.8,34.0,30.33,NNW,336,0.0,0.0,97,0.00,,---,0.00,VWS V14.01,2013-01-19 02:00:00,
2013-01-18 18:05:00,34.6,33.8,30.33,NNW,336,0.0,0.0,97,0.00,,---,0.00,VWS V14.01,2013-01-19 02:05:00,
2013-01-18 18:10:00,34.6,33.8,30.33,NNW,340,0.0,0.0,97,0.00,,---,0.00,VWS V14.01,2013-01-19 02:10:00,
2013-01-18 18:15:00,34.5,33.7,30.33,NNW,340,0.0,0.0,97,0.00,,---,0.00,VWS V14.01,2013-01-19 02:15:00,
2013-01-18 18:20:00,33.9,33.1,30.33,NNW,336,0.0,0.0,97,0.00,,---,0.00,VWS V14.01,2013-01-19 02:20:00,
2013-01-18 18:25:00,33.7,32.9,30.33,NNW,336,0.0,0.0,97,0.00,,---,0.00,VWS V14.01,2013-01-19 02:25:00,
2013-01-18 18:30:00,33.9,33.1,30.33,NNW,336,0.0,0.0,97,0.00,,---,0.00,VWS V14.01,2013-01-19 02:30:00,
2013-01-18 18:35:00,33.9,33.1,30.33,NNW,336,0.0,0.0,97,0.00,,---,0.00,VWS V14.01,2013-01-19 02:35:00,
2013-01-18 18:40:00,34.3,33.5,30.33,NNW,336,0.0,0.0,97,0.00,,---,0.00,VWS V14.01,2013-01-19 02:40:00,
2013-01-18 18:45:00,34.7,33.9,30.33,NNW,336,0.0,0.0,97,0.00,,---,0.00,VWS V14.01,2013-01-19 02:45:00,
2013-01-18 18:50:00,35.0,34.5,30.33,NNW,336,0.0,0.0,98,0.00,,---,0.00,VWS V14.01,2013-01-19 02:50:00,
2013-01-18 18:55:00,34.9,34.4,30.33,NNW,342,0.0,0.0,98,0.00,,---,0.00,VWS V14.01,2013-01-19 02:55:00,
2013-01-18 19:00:00,34.9,34.1,30.33,NNW,348,0.0,0.0,97,0.00,,---,0.00,VWS V14.01,2013-01-19 03:00:00,
2013-01-18 19:05:00,34.8,34.0,30.34,North,355,0.0,0.0,97,0.00,,---,0.00,VWS V14.01,2013-01-19 03:05:00,
2013-01-18 19:10:00,34.6,33.8,30.34,NNW,332,0.0,0.0,97,0.00,,---,0.00,VWS V14.01,2013-01-19 03:10:00,
2013-01-18 19:15:00,34.7,33.9,30.33,NNW,327,0.0,0.0,97,0.00,,---,0.00,VWS V14.01,2013-01-19 03:15:00,
2013-01-18 19:20:00,34.7,33.9,30.33,WNW,296,0.0,0.0,97,0.00,,---,0.00,VWS V14.01,2013-01-19 03:20:00,
2013-01-18 19:25:00,34.7,33.9,30.34,WNW,294,0.0,0.0,97,0.00,,---,0.00,VWS V14.01,2013-01-19 03:25:00,
2013-01-18 19:30:00,34.6,33.8,30.34,NW,317,0.0,0.0,97,0.00,,---,0.00,VWS V14.01,2013-01-19 03:30:00,
2013-01-18 19:35:00,34.6,33.8,30.34,NW,326,0.0,0.0,97,0.00,,---,0.00,VWS V14.01,2013-01-19 03:35:00,
2013-01-18 19:40:00,34.3,33.5,30.34,NNW,337,0.0,0.0,97,0.00,,---,0.00,VWS V14.01,2013-01-19 03:40:00,
2013-01-18 19:45:00,34.3,33.5,30.34,NNW,340,0.0,0.0,97,0.00,,---,0.00,VWS V14.01,2013-01-19 03:45:00,
2013-01-18 19:50:00,34.2,33.4,30.34,NNW,340,0.0,0.0,97,0.00,,---,0.00,VWS V14.01,2013-01-19 03:50:00,
2013-01-18 19:55:00,34.2,33.4,30.34,NNW,338,0.0,0.0,97,0.00,,---,0.00,VWS V14.01,2013-01-19 03:55:00,
2013-01-18 20:00:00,34.4,33.6,30.34,NNW,338,0.0,0.0,97,0.00,,---,0.00,VWS V14.01,2013-01-19 04:00:00,
2013-01-18 20:05:00,34.4,33.6,30.34,NNW,338,0.0,0.0,97,0.00,,---,0.00,VWS V14.01,2013-01-19 04:05:00,
2013-01-18 20:10:00,34.3,33.5,30.34,NNW,338,0.0,0.0,97,0.00,,---,0.00,VWS V14.01,2013-01-19 04:10:00,
2013-01-18 20:15:00,34.1,33.3,30.34,NNW,338,0.0,0.0,97,0.00,,---,0.00,VWS V14.01,2013-01-19 04:15:00,
2013-01-18 20:20:00,34.2,33.4,30.34,NNW,338,0.0,0.0,97,0.00,,---,0.00,VWS V14.01,2013-01-19 04:20:00,
2013-01-18 20:25:00,34.1,33.3,30.34,NNW,338,0.0,0.0,97,0.00,,---,0.00,VWS V14.01,2013-01-19 04:25:00,
2013-01-18 20:30:00,34.0,33.2,30.35,NNW,338,0.0,0.0,97,0.00,,---,0.00,VWS V14.01,2013-01-19 04:30:00,
2013-01-18 20:35:00,34.0,33.2,30.35,NNW,339,0.0,0.0,97,0.00,,---,0.00,VWS V14.01,2013-01-19 04:35:00,
2013-01-18 20:40:00,33.9,33.1,30.35,NNW,333,0.0,0.0,97,0.00,,---,0.00,VWS V14.01,2013-01-19 04:40:00,
2013-01-18 20:45:00,34.0,33.2,30.35,NNW,332,0.0,0.0,97,0.00,,---,0.00,VWS V14.01,2013-01-19 04:45:00,
2013-01-18 20:50:00,34.1,33.3,30.35,NNW,332,0.0,0.0,97,0.00,,---,0.00,VWS V14.01,2013-01-19 04:50:00,
2013-01-18 20:55:00,34.0,33.2,30.36,NNE,24,0.0,0.0,97,0.00,,---,0.00,VWS V14.01,2013-01-19 04:55:00,
2013-01-18 21:00:00,33.9,33.1,30.36,NNW,339,0.0,0.0,97,0.00,,---,0.00,VWS V14.01,2013-01-19 05:00:00,
2013-01-18 21:01:00,33.9,33.1,30.36,NNW,333,0.0,0.0,97,0.00,,---,0.00,VWS V14.01,2013-01-19 05:01:00,
2013-01-18 21:06:00,34.0,33.2,30.36,NNW,333,0.0,0.0,97,0.00,,---,0.00,VWS V14.01,2013-01-19 05:06:00,
2013-01-18 21:11:00,33.8,33.0,30.36,NNW,333,0.0,0.0,97,0.00,,---,0.00,VWS V14.01,2013-01-19 05:11:00,
2013-01-18 21:16:00,33.9,33.1,30.36,NNW,338,0.0,0.0,97,0.00,,---,0.00,VWS V14.01,2013-01-19 05:16:00,
2013-01-18 21:21:00,33.9,33.1,30.36,NNW,340,0.0,0.0,97,0.00,,---,0.00,VWS V14.01,2013-01-19 05:21:00,
2013-01-18 21:26:00,33.9,33.1,30.37,NNW,340,0.0,0.0,97,0.00,,---,0.00,VWS V14.01,2013-01-19 05:26:00,
2013-01-18 21:31:00,33.5,32.7,30.37,North,355,0.0,0.0,97,0.00,,---,0.00,VWS V14.01,2013-01-19 05:31:00,
2013-01-18 21:36:00,33.4,32.6,30.36,North,355,0.0,0.0,97,0.00,,---,0.00,VWS V14.01,2013-01-19 05:36:00,
2013-01-18 21:41:00,33.4,32.6,30.36,East,88,0.0,0.0,97,0.00,,---,0.00,VWS V14.01,2013-01-19 05:41:00,
2013-01-18 21:46:00,33.5,32.7,30.37,SE,132,0.0,0.0,97,0.00,,---,0.00,VWS V14.01,2013-01-19 05:46:00,
2013-01-18 21:51:00,33.5,32.7,30.37,East,82,0.0,0.0,97,0.00,,---,0.00,VWS V14.01,2013-01-19 05:51:00,
2013-01-18 21:56:00,33.6,32.8,30.37,East,95,0.0,0.0,97,0.00,,---,0.00,VWS V14.01,2013-01-19 05:56:00,
2013-01-18 22:01:00,33.6,32.8,30.37,ENE,71,0.0,0.0,97,0.00,,---,0.00,VWS V14.01,2013-01-19 06:01:00,
2013-01-18 22:06:00,33.7,32.9,30.37,East,92,0.0,0.0,97,0.00,,---,0.00,VWS V14.01,2013-01-19 06:06:00,
2013-01-18 22:11:00,33.7,32.9,30.37,East,89,0.0,0.0,97,0.00,,---,0.00,VWS V14.01,2013-01-19 06:11:00,
2013-01-18 22:16:00,33.6,32.8,30.37,SSE,155,0.0,0.0,97,0.00,,---,0.00,VWS V14.01,2013-01-19 06:16:00,
2013-01-18 22:21:00,33.6,32.8,30.37,East,101,0.0,0.0,97,0.00,,---,0.00,VWS V14.01,2013-01-19 06:21:00,
2013-01-18 22:26:00,33.7,32.9,30.37,East,86,0.0,0.0,97,0.00,,---,0.00,VWS V14.01,2013-01-19 06:26:00,
2013-01-18 22:31:00,33.7,32.9,30.37,East,90,0.0,0.0,97,0.00,,---,0.00,VWS V14.01,2013-01-19 06:31:00,
2013-01-18 22:36:00,33.8,33.0,30.37,ESE,110,0.0,0.0,97,0.00,,---,0.00,VWS V14.01,2013-01-19 06:36:00,
2013-01-18 22:41:00,33.8,33.0,30.37,NE,54,0.0,0.0,97,0.00,,---,0.00,VWS V14.01,2013-01-19 06:41:00,
2013-01-18 22:47:00,33.8,33.0,30.37,ENE,57,0.0,0.0,97,0.00,,---,0.00,VWS V14.01,2013-01-19 06:47:00,
2013-01-18 22:52:00,33.9,33.1,30.37,ENE,72,0.0,0.0,97,0.00,,---,0.00,VWS V14.01,2013-01-19 06:52:00,
2013-01-18 22:57:00,33.8,33.0,30.37,East,101,0.0,0.0,97,0.00,,---,0.00,VWS V14.01,2013-01-19 06:57:00,
2013-01-18 23:02:00,33.9,33.1,30.37,East,79,0.0,0.0,97,0.00,,---,0.00,VWS V14.01,2013-01-19 07:02:00,
2013-01-18 23:07:00,33.8,33.0,30.37,South,175,0.0,0.0,97,0.00,,---,0.00,VWS V14.01,2013-01-19 07:07:00,
2013-01-18 23:12:00,33.8,33.0,30.37,SSE,163,0.0,0.0,97,0.00,,---,0.00,VWS V14.01,2013-01-19 07:12:00,
2013-01-18 23:17:00,33.8,33.0,30.37,East,95,0.0,0.0,97,0.00,,---,0.00,VWS V14.01,2013-01-19 07:17:00,
2013-01-18 23:22:00,33.6,32.8,30.37,SW,228,0.0,0.0,97,0.00,,---,0.00,VWS V14.01,2013-01-19 07:22:00,
2013-01-18 23:27:00,33.4,32.6,30.37,East,90,0.0,0.0,97,0.00,,---,0.00,VWS V14.01,2013-01-19 07:27:00,
2013-01-18 23:32:00,33.3,32.5,30.37,SSE,147,0.0,0.0,97,0.00,,---,0.00,VWS V14.01,2013-01-19 07:32:00,
2013-01-18 23:37:00,33.3,32.5,30.37,SE,126,0.0,0.0,97,0.00,,---,0.00,VWS V14.01,2013-01-19 07:37:00,
2013-01-18 23:42:00,33.3,32.5,30.37,East,95,0.0,0.0,97,0.00,,---,0.00,VWS V14.01,2013-01-19 07:42:00,
2013-01-18 23:47:00,33.4,32.6,30.37,ESE,105,0.0,0.0,97,0.00,,---,0.00,VWS V14.01,2013-01-19 07:47:00,
2013-01-18 23:52:00,33.3,32.5,30.37,ESE,117,0.0,0.0,97,0.00,,---,0.00,VWS V14.01,2013-01-19 07:52:00,
2013-01-18 23:57:00,33.3,32.5,30.37,NE,49,0.0,0.0,97,0.00,,---,0.00,VWS V14.01,2013-01-19 07:57:00,